Regional Weather Roundup
Issued by NWS

Home | Current Version | Previous Version | Text Only | Print | Product List | Glossary Off
Versions: 1 2 3 4 5 6 7 8 9 10 11 12 13 14 15 16 17 18 19 20 21 22 23 24 25 26 27 28 29 30 31 32 33 34 35 36 37 38 39 40 41 42 43 44 45 46 47 48 49 50

000
ASUS43 KLOT 221400
RWRIL

ILLINOIS REGIONAL WEATHER ROUNDUP
NATIONAL WEATHER SERVICE CHICAGO/ROMEOVILLE IL
900 AM CDT FRI AUG 22 2014

NOTE: "FAIR" INDICATES FEW OR NO CLOUDS BELOW 12,000 FEET WITH NO
SIGNIFICANT WEATHER AND/OR OBSTRUCTIONS TO VISIBILITY.

* THESE STATIONS ARE NOT UNDER NWS QUALITY CONTROL. THEY ALSO MAY NOT
  REPORT WEATHER SUCH AS PRECIPITATION OR FOG.

ILZ001-002-007-009-015-016-024-221500-
NORTHWEST ILLINOIS

CITY           SKY/WX    TMP DP  RH WIND       PRES   REMARKS
MOLINE         TSTM      71  69  93 SE9       29.93R VSB 1
STERLING*      CLOUDY    75  73  94 SW5       29.93S
$$

ILZ003-004-008-010-011-017-018-221500-
NORTH CENTRAL ILLINOIS

CITY           SKY/WX    TMP DP  RH WIND       PRES   REMARKS
ROCKFORD       CLOUDY    77  73  87 S8        29.95R
ROCHELLE*      CLOUDY    76  73  90 S9        29.95R
$$

ILZ005-006-012>014-019>023-221500-
NORTHEAST ILLINOIS

CITY           SKY/WX    TMP DP  RH WIND       PRES   REMARKS
CHICAGO-OHARE  CLOUDY    77  71  82 SW5       29.93S
CHICAGO-MIDWAY CLOUDY    79  74  84 SW7       29.94R HX  82
AURORA         CLOUDY    77  73  87 SW9       29.95R
WAUKEGAN       CLOUDY    74  72  93 CALM      29.94R
DUPAGE AIRPORT PTSUNNY   77  73  87 SW8       29.94R
WHEELING       PTSUNNY   77  72  84 CALM      29.94S
NORTHERLY ISL    N/A     75  71  87 E6          N/A
$$

LMZ740>746-221500-
SOUTHERN LAKE MICHIGAN

STATION/POSITION SKY/WX   TEMP    WIND        PRES    VSBY  WAVE
                          AIR SEA DIR/SP/G                  HT/PER
                          (F)     (DEG/KT/KT) (MB)    (MI)  (FT/S)
SOUTHERN BUOY              69 69  170/  8/ 12 1013.9R         0
WAUKEGAN HARBOR            72      50/  3/  4   N/A
HARRISON CRIB              73     160/ 10/ 12   N/A
BURNHAM HARBOR             75     120/  5/  6   N/A
CALUMET HARBOR             75     160/  4/  6 1012.6R
MICHIGAN CITY              74     130/  6/  8   N/A
MICHIGAN CITY 6N           73 71  160/  6/  8   N/A           0
ST. JOSEPH                 73 71  140/  6/  8   N/A           1
$$

ILZ025>027-034>036-040-047-049-050-058-095>099-221500-
WEST-CENTRAL ILLINOIS

CITY           SKY/WX    TMP DP  RH WIND       PRES   REMARKS
QUINCY         CLOUDY    77  72  84 S5        29.96F
MACOMB*        LGT RAIN  74  74 100 SE7       29.96F
$$

ILZ028>032-037-038-041>044-048-051>054-059>061-221500-
CENTRAL ILLINOIS

CITY           SKY/WX    TMP DP  RH WIND       PRES   REMARKS
DECATUR        CLOUDY    77  73  87 N12       30.05R
PEORIA         LGT RAIN  75  71  87 S10       29.98R
SPRINGFIELD    CLOUDY    78  74  87 CALM      30.00S HX  81
TAYLORVILLE    NOT AVBL
$$

ILZ033-039-045-046-055>057-062-063-221500-
EAST-CENTRAL ILLINOIS

CITY           SKY/WX    TMP DP  RH WIND       PRES   REMARKS
CHAMPAIGN      LGT RAIN  73  72  96 W3        30.05R
MATTOON        CLOUDY    78  72  81 N5        30.02R HX  80
$$

ILZ079-100>102-221500-
SOUTHWEST ILLINOIS

CITY           SKY/WX    TMP DP  RH WIND       PRES   REMARKS
ALTON          PTSUNNY   81  77  89 W8        30.02R HX  88
BELLEVILLE     SUNNY     82  74  78 VRB3      30.02R HX  88
CAHOKIA*       SUNNY     82  72  71 VRB3      30.01R HX  87
$$

ILZ064>066-069>071-074>076-080>082-084>086-088>090-092>094-221500-
SOUTH-CENTRAL ILLINOIS

CITY           SKY/WX    TMP DP  RH WIND       PRES   REMARKS
CARBONDALE     PTSUNNY   80  73  79 SW8       30.04R HX  84
MARION         PTSUNNY   81  75  83 SW8       30.05R HX  86
MT. VERNON     PTSUNNY   79  72  78 SW6       30.04R HX  82
SALEM*         MOSUNNY   81  74  79 SW7       30.03R HX  87
$$

ILZ067-068-072-073-078-083-087-091-221500-
SOUTHEAST ILLINOIS

CITY           SKY/WX    TMP DP  RH WIND       PRES   REMARKS
LAWRENCEVILLE  PTSUNNY   78  74  87 W5        30.02R HX  81
HARRISBURG*    PTSUNNY   80  76  88 SW6       30.05R HX  84
ROBINSON*      PTSUNNY   79  75  87 W8        30.03R HX  83
$$

ABBREVIATIONS USED IN REMARKS
   TC - TEMPERATURE IN CELSIUS
  WCI - WIND CHILL INDEX
   HX - HEAT INDEX
  VSB - VISIBILITY
$$



USA.gov is the U.S. government's official web portal to all federal, state and local government web resources and services.